Location: Aranbee
(34.0885°N, 118.2342°W)
Time: 11:56:21
(UTC+00:00)

S-56A Canister/Altair - Pass Details

Date: 05 August 2021
Orbit: 632 x 2500 km, 38.9° (Epoch: 18 September)

Event Time Altitude Azimuth Distance (km) Brightness Sun altitude
Rises 05:38:13 0° 287° (WNW) 6,131 12.9 -29.0°
Reaches altitude 10° 05:43:54 10° 274° (W) 4,970 12.1 -29.7°
Maximum altitude 05:52:41 20° 234° (SW) 3,785 11.0 -30.8°
Enters shadow 05:56:57 16° 208° (SSW) 3,775 10.8 -31.3°
